Weather History for KLUF - March, 2013

Change the Weather History Date:

Friday, March 15, 2013

  Actual Average Record
Temperature  
Mean Temperature 71 °F -  
Max Temperature 88 °F 77 °F 93 °F (1934)
Min Temperature 54 °F 42 °F 28 °F (1962)
Cooling Degree Days 6    
Growing Degree Days 21 (Base 50)    
Moisture  
Dew Point 42 °F    
Average Humidity 38    
Maximum Humidity 63    
Minimum Humidity 13    
Precipitation  
Precipitation 0.00 in - - ()
Sea Level Pressure  
Sea Level Pressure 29.90 in    
Wind  
Wind Speed 5 mph (North)    
Max Wind Speed 8 mph    
Max Gust Speed -    
Visibility 10 miles    
Events      
Averages and records for this station are not official NWS values.
T = Trace of Precipitation, MM = Missing Value Source: NWS Daily Summary

Daily Weather History Graph

Daily Weather History Graph

Search for Another Location

Airport or City:

Trip Planner

Search our weather history database for the weather conditions in past years. The results will help you decide how hot, cold, wet, or windy it might be!

Date:

Astronomy

Mar. 15, 2013 Rise Set
Actual Time 6:39 AM MST 6:37 PM MST
Civil Twilight 6:14 AM MST 7:02 PM MST
Nautical Twilight 5:45 AM MST 7:31 PM MST
Astronomical Twilight 5:16 AM MST 8:00 PM MST
Moon 8:45 AM MST (3/15) 10:40 PM MST (3/15)
Length of Visible Light 12h 47m
Length of Day
11h 58m
Waxing Crescent, 16% of the Moon is Illuminated
Mar 15
Waxing Crescent
Mar 19
First Quarter
Mar 27
Full
Apr 2
Last Quarter
Apr 10
New

Hourly Weather History & Observations

Time (MST) Temp. Dew Point Humidity Pressure Visibility Wind Dir Wind Speed Gust Speed Precip Events Conditions
12:58 AM 63.1 °F 44.2 °F 50% 29.95 in 10.0 mi North 8.1 mph - N/A   Clear
1:58 AM 62.4 °F 42.3 °F 48% 29.95 in 10.0 mi North 4.6 mph - N/A   Clear
2:58 AM 61.2 °F 42.3 °F 50% 29.94 in 10.0 mi NNE 3.5 mph - N/A   Clear
3:58 AM 58.3 °F 42.8 °F 56% 29.94 in 10.0 mi ENE 4.6 mph - N/A   Clear
4:58 AM 57.2 °F 43.5 °F 60% 29.94 in 10.0 mi North 5.8 mph - N/A   Clear
5:58 AM 55.6 °F 42.6 °F 62% 29.95 in 10.0 mi NW 5.8 mph - N/A   Clear
6:58 AM 54.9 °F 42.6 °F 63% 29.95 in 10.0 mi NNW 5.8 mph - N/A   Clear
7:58 AM 60.8 °F 46.4 °F 59% 29.97 in 10.0 mi North 4.6 mph - N/A   Clear
8:58 AM 71.1 °F 43.9 °F 38% 29.99 in 10.0 mi North 2.3 mph - N/A   Clear
9:58 AM 73.4 °F 42.8 °F 33% 29.98 in 10.0 mi NNE 5.8 mph - N/A   Clear
10:58 AM 77.2 °F 41.4 °F 28% 29.98 in 10.0 mi ENE 4.6 mph - N/A   Clear
11:58 AM 81.9 °F 38.8 °F 22% 29.96 in 10.0 mi Variable 3.5 mph - N/A   Clear
12:58 PM 84.6 °F 37.2 °F 19% 29.93 in 10.0 mi SE 4.6 mph - N/A   Partly Cloudy
1:58 PM 87.3 °F 36.9 °F 17% 29.89 in 10.0 mi NNE 2.3 mph - N/A   Partly Cloudy
2:58 PM 88.5 °F 36.1 °F 16% 29.87 in 10.0 mi SSW 4.6 mph - N/A   Clear
3:58 PM 88.9 °F 35.1 °F 15% 29.85 in 10.0 mi WSW 5.8 mph - N/A   Clear
4:58 PM 88.9 °F 32.5 °F 13% 29.83 in 10.0 mi Calm Calm - N/A   Clear
5:58 PM 86.7 °F 34.7 °F 16% 29.83 in 10.0 mi SW 4.6 mph - N/A   Clear
6:58 PM 81.7 °F 40.5 °F 23% 29.83 in 10.0 mi West 3.5 mph - N/A   Clear
7:58 PM 75.4 °F 47.3 °F 37% 29.83 in 10.0 mi Calm Calm - N/A   Clear
8:58 PM 69.4 °F 48.9 °F 48% 29.82 in 10.0 mi North 4.6 mph - N/A   Clear
9:58 PM 69.4 °F 43.3 °F 39% 29.83 in 10.0 mi North 4.6 mph - N/A   Clear
10:58 PM 64.9 °F 44.8 °F 48% 29.83 in 10.0 mi Variable 3.5 mph - N/A   Clear
11:58 PM 62.4 °F 47.3 °F 58% 29.83 in 10.0 mi NW 3.5 mph - N/A   Clear